EW9837 Weather Reports


Display with metric or nautical units.
time (UTC)temp
F
wind
direction
speed
MPH
gust
MPH
rain 1hr
in
rain 24hr
in
rain mn
in
humidity
%
barometer
mb
20260505024534 68 192 3.0 12.0 0.00 0.00 0.00 45 1012.4
20260505023036 69 231 4.0 14.0 0.00 0.00 0.00 44 1012.3
20260505021658 70 285 4.0 13.0 0.00 0.00 0.00 43 1012.2
20260505020036 71 304 5.0 13.0 0.00 0.00 0.00 42 1012.2
20260505013110 74 259 3.0 11.0 0.00 0.00 0.00 38 1012.1
20260505011535 75 269 3.0 12.0 0.00 0.00 0.00 36 1012.0
20260505010033 75 247 6.0 14.0 0.00 0.00 0.00 36 1012.0
20260505004535 76 241 7.0 18.0 0.00 0.00 0.00 35 1012.1
20260505001531 77 244 8.0 19.0 0.00 0.00 0.00 35 1012.0
20260505000110 78 261 6.0 13.0 0.00 0.00 0.00 35 1012.0
20260504234607 79 255 6.0 17.0 0.00 0.00 0.00 34 1011.9
20260504231535 79 258 7.0 23.0 0.00 0.00 0.00 35 1011.9
20260504224537 79 241 8.0 17.0 0.00 0.00 0.00 34 1012.2
20260504223035 80 247 8.0 18.0 0.00 0.00 0.00 33 1012.3
20260504221611 80 249 7.0 18.0 0.00 0.00 0.00 33 1012.3
20260504220031 81 264 5.0 14.0 0.00 0.00 0.00 33 1012.3
20260504214535 81 251 6.0 12.0 0.00 0.00 0.00 33 1012.4
20260504211536 81 264 6.0 14.0 0.00 0.00 0.00 33 1012.5
20260504210036 81 265 6.0 14.0 0.00 0.00 0.00 33 1012.5
20260504203033 81 264 5.0 13.0 0.00 0.00 0.00 33 1012.6
20260504201614 81 259 6.0 14.0 0.00 0.00 0.00 33 1012.8
20260504200036 80 299 4.0 11.0 0.00 0.00 0.00 33 1012.8
20260504194535 80 289 5.0 15.0 0.00 0.00 0.00 33 1012.8
20260504191643 79 18 7.0 14.0 0.00 0.00 0.00 41 1012.9
20260504190037 79 32 5.0 11.0 0.00 0.00 0.00 42 1013.0
20260504184536 79 52 5.0 10.0 0.00 0.00 0.00 43 1013.0
20260504183037 78 55 6.0 10.0 0.00 0.00 0.00 43 1013.0
20260504181529 79 39 6.0 12.0 0.00 0.00 0.00 43 1013.0
20260504180036 78 32 5.0 10.0 0.00 0.00 0.00 43 1013.0
20260504174608 77 52 6.0 14.0 0.00 0.00 0.00 43 1013.0
20260504173032 77 51 4.0 12.0 0.00 0.00 0.00 43 1013.0
20260504171534 76 28 2.0 7.0 0.00 0.00 0.00 45 1013.1
20260504150107 62 106 2.0 5.0 0.00 0.00 0.00 75 1013.4
20260504140108 48 156 3.0 5.0 0.00 0.00 0.00 95 1013.0
20260504081531 48 157 3.0 4.0 0.00 0.00 0.00 85 1012.8
20260504080107 48 157 4.0 4.0 0.00 0.00 0.00 84 1012.9
20260504070109 51 184 0.0 0.0 0.00 0.00 0.00 79 1012.8
20260504044536 59 171 1.0 4.0 0.00 0.00 0.00 60 1012.6
20260504043034 61 157 0.0 0.0 0.00 0.00 0.00 54 1012.5
20260504041535 63 162 1.0 6.0 0.00 0.00 0.00 51 1012.3
20260504040043 64 176 4.0 6.0 0.00 0.00 0.00 50 1012.1
20260504034536 65 176 4.0 7.0 0.00 0.00 0.00 49 1012.0
20260504033034 66 181 4.0 7.0 0.00 0.00 0.00 49 1011.9
20260504031535 66 172 4.0 7.0 0.00 0.00 0.00 50 1011.7
20260504030035 69 196 2.0 5.0 0.00 0.00 0.00 51 1011.6